Date String (YYYY-MM-DD hh:mm:ss) UTC,Instrument flags,absolute air pressure of the measurement (hPa),sample flow rate (lpm),inlet stack bypass flow (lpm),air temperature of the measurement (°C),ambient temperature measured by the external sensor (°C),aerosol sample conditioner tube jacket temperature (°C),OPC LED temperature (°C),internal box temperature (°C),relative humidity of the measurement (%),span deviation,mass concentration of particles derived from Lorenz-Mie calculation of OPC scattering (μg/m³),mass concentration of particles derived from Lorenz-Mie calculation of OPC scattering (μg/m³),mass concentration of particles derived from Lorenz-Mie calculation of OPC scattering (μg/m³)
DateTimeUTC,F1_M11,P_M11,Q1_M11,Q2_M11,T1_M11,T2_M11,T3_M11,T4_M11,T5_M11,U1_M11,ZSPAN_M11,X0_M11,X2_M11,X1_M11
2024-04-09 22:00:00,SystemResetWarning,0825.6,5.00,000.00,025.4,024.8,000.0,033.6,027.2,011.7,0006.3,0014.33,0006.04,0005.17
2024-04-09 22:01:00,SystemResetWarning,0825.6,5.00,000.00,025.4,024.8,000.0,033.7,027.2,011.4,0005.5,0014.05,0006.04,0005.16
2024-04-09 22:02:00,SystemResetWarning,0825.6,5.00,000.00,025.4,024.8,000.0,033.7,027.2,011.5,0001.4,0014.53,0006.07,0005.17
2024-04-09 22:03:00,SystemResetWarning,0825.6,5.00,000.00,025.4,024.8,000.0,033.7,027.3,011.6,0006.5,0014.35,0006.06,0005.16
2024-04-09 22:04:00,SystemResetWarning,0825.6,5.00,000.00,025.5,024.8,000.0,033.7,027.3,011.6,0004.9,0013.96,0006.03,0005.15
2024-04-09 22:05:00,SystemResetWarning,0825.6,5.01,000.00,025.5,024.9,000.0,033.7,027.3,011.6,0004.5,0014.00,0005.99,0005.14
2024-04-09 22:06:00,SystemResetWarning,0825.6,5.00,000.00,025.5,024.9,000.0,033.7,027.3,011.5,0002.2,0014.74,0005.98,0005.14
2024-04-09 22:07:00,SystemResetWarning,0825.6,5.01,000.00,025.5,024.9,000.0,033.8,027.3,011.5,0001.5,0016.10,0005.94,0005.11
2024-04-09 22:08:00,SystemResetWarning,0825.6,5.00,000.00,025.5,024.9,000.0,033.8,027.3,011.6,0001.2,0016.80,0005.91,0005.09
2024-04-09 22:09:00,SystemResetWarning,0825.7,5.00,000.00,025.5,024.9,000.0,033.8,027.3,011.6,0001.5,0016.96,0005.90,0005.08
2024-04-09 22:10:00,SystemResetWarning,0825.7,5.00,000.00,025.5,024.9,000.0,033.8,027.3,011.4,0001.0,0016.39,0005.91,0005.07
2024-04-09 22:11:00,SystemResetWarning,0825.7,4.99,000.00,025.6,024.9,000.0,033.8,027.4,011.3,0002.0,0016.87,0005.89,0005.08
2024-04-09 22:12:00,SystemResetWarning,0825.6,5.00,000.00,025.6,024.9,000.0,033.8,027.4,011.4,0001.2,0017.53,0005.95,0005.12
2024-04-09 22:13:00,SystemResetWarning,0825.6,5.00,000.00,025.6,024.9,000.0,033.9,027.4,011.3,0001.1,0017.67,0005.96,0005.15
2024-04-09 22:14:00,SystemResetWarning,0825.6,5.00,000.00,025.6,024.9,000.0,033.9,027.4,011.4,0000.9,0018.15,0006.01,0005.19
2024-04-09 22:15:00,SystemResetWarning,0825.7,5.00,000.00,025.6,025.0,000.0,033.9,027.4,011.3,0001.3,0018.38,0006.07,0005.24
2024-04-09 22:16:00,SystemResetWarning,0825.6,5.01,000.00,025.6,025.0,000.0,033.9,027.4,011.1,0001.1,0017.79,0006.14,0005.30
2024-04-09 22:17:00,SystemResetWarning,0825.7,5.00,000.00,025.6,025.0,000.0,033.9,027.4,011.1,0001.0,0016.99,0006.19,0005.34
2024-04-09 22:18:00,SystemResetWarning,0825.6,5.00,000.00,025.6,025.0,000.0,033.9,027.5,011.3,0002.5,0015.82,0006.20,0005.37
2024-04-09 22:19:00,SystemResetWarning,0825.6,5.00,000.00,025.7,025.0,000.0,033.9,027.5,011.2,0002.6,0015.15,0006.24,0005.40
2024-04-09 22:20:00,SystemResetWarning,0825.6,5.00,000.00,025.7,025.1,000.0,034.0,027.5,011.2,0001.6,0015.02,0006.26,0005.43
2024-04-09 22:21:00,SystemResetWarning,0825.6,5.00,000.00,025.7,025.1,000.0,034.0,027.5,011.0,-000.9,0015.34,0006.26,0005.44
2024-04-09 22:22:00,SystemResetWarning,0825.7,5.00,000.00,025.7,025.1,000.0,034.0,027.5,011.0,-000.4,0015.85,0006.29,0005.46
2024-04-09 22:23:00,SystemResetWarning,0825.7,5.00,000.00,025.7,025.1,000.0,034.0,027.5,010.8,0000.1,0014.90,0006.26,0005.47
2024-04-09 22:24:00,SystemResetWarning,0825.6,5.00,000.00,025.7,025.1,000.0,034.0,027.5,010.8,-001.5,0014.23,0006.28,0005.48
2024-04-09 22:25:00,SystemResetWarning,0825.7,5.00,000.00,025.7,025.1,000.0,034.0,027.5,011.0,-003.2,0014.77,0006.26,0005.48
2024-04-09 22:26:00,SystemResetWarning,0825.7,5.00,000.00,025.8,025.1,000.0,034.0,027.6,011.0,0003.6,0014.24,0006.26,0005.48
2024-04-09 22:27:00,SystemResetWarning,0825.6,5.00,000.00,025.8,025.1,000.0,034.1,027.6,011.1,0005.5,0014.56,0006.24,0005.46
2024-04-09 22:28:00,SystemResetWarning,0825.7,5.00,000.00,025.8,025.1,000.0,034.1,027.6,011.4,-001.7,0014.60,0006.18,0005.41
2024-04-09 22:29:00,SystemResetWarning,0825.7,5.00,000.00,025.8,025.2,000.0,034.1,027.6,011.3,-002.1,0014.57,0006.16,0005.38
2024-04-09 22:30:00,SystemResetWarning,0825.7,5.00,000.00,025.8,025.2,000.0,034.1,027.6,011.2,-000.6,0014.64,0006.14,0005.35
2024-04-09 22:31:00,SystemResetWarning,0825.7,5.00,000.00,025.8,025.2,000.0,034.1,027.6,011.3,-000.4,0014.60,0006.10,0005.33
2024-04-09 22:32:00,SystemResetWarning,0825.6,5.00,000.00,025.8,025.2,000.0,034.1,027.7,011.1,0006.1,0015.17,0006.11,0005.32
2024-04-09 22:33:00,SystemResetWarning,0825.6,5.00,000.00,025.9,025.2,000.0,034.1,027.7,011.3,0008.9,0014.93,0006.13,0005.29
2024-04-09 22:34:00,SystemResetWarning,0825.6,5.01,000.00,025.9,025.3,000.0,034.2,027.7,011.3,0009.6,0015.37,0006.12,0005.23
2024-04-09 22:35:00,SystemResetWarning,0825.6,5.00,000.00,025.9,025.3,000.0,034.2,027.7,011.0,0013.7,0015.51,0006.07,0005.17
2024-04-09 22:36:00,SystemResetWarning,0825.6,5.00,000.00,025.9,025.3,000.0,034.2,027.7,011.0,0013.1,0015.38,0005.98,0005.11
2024-04-09 22:37:00,SystemResetWarning,0825.6,5.00,000.00,025.9,025.3,000.0,034.2,027.7,011.1,0007.0,0015.37,0005.92,0005.07
2024-04-09 22:38:00,SystemResetWarning,0825.6,5.00,000.00,025.9,025.3,000.0,034.2,027.8,010.7,-001.6,0015.14,0005.89,0005.05
2024-04-09 22:39:00,SystemResetWarning,0825.6,5.00,000.00,026.0,025.3,000.0,034.2,027.8,010.9,-000.4,0014.89,0005.90,0005.05
2024-04-09 22:40:00,SystemResetWarning,0825.6,5.00,000.00,026.0,025.3,000.0,034.3,027.8,010.7,-001.0,0014.73,0005.87,0005.04
2024-04-09 22:41:00,SystemResetWarning,0825.6,5.00,000.00,026.0,025.3,000.0,034.3,027.8,011.0,-001.9,0014.69,0005.90,0005.04
2024-04-09 22:42:00,SystemResetWarning,0825.6,5.00,000.00,026.0,025.3,000.0,034.3,027.8,011.0,-001.7,0014.75,0005.93,0005.04
2024-04-09 22:43:00,SystemResetWarning,0825.6,5.00,000.00,026.0,025.4,000.0,034.3,027.8,011.1,-000.8,0013.86,0005.88,0005.01
2024-04-09 22:44:00,SystemResetWarning,0825.6,5.00,000.00,026.0,025.4,000.0,034.3,027.9,011.0,0002.1,0014.01,0005.82,0004.97
2024-04-09 22:45:00,SystemResetWarning,0825.6,5.00,000.00,026.0,025.4,000.0,034.3,027.9,010.9,0004.3,0013.71,0005.80,0004.97
2024-04-09 22:46:00,SystemResetWarning,0825.6,5.00,000.00,026.1,025.4,000.0,034.4,027.9,010.8,0003.6,0013.77,0005.78,0004.97
2024-04-09 22:47:00,SystemResetWarning,0825.7,5.00,000.00,026.1,025.4,000.0,034.4,027.9,010.8,0004.1,0013.34,0005.83,0004.99
2024-04-09 22:48:00,SystemResetWarning,0825.6,5.00,000.00,026.1,025.4,000.0,034.4,027.9,011.0,0003.7,0012.95,0005.87,0004.99
2024-04-09 22:49:00,SystemResetWarning,0825.7,5.00,000.00,026.1,025.4,000.0,034.4,027.9,010.9,0003.6,0013.12,0005.87,0004.97
2024-04-09 22:50:00,SystemResetWarning,0825.6,5.00,000.00,026.1,025.4,000.0,034.4,027.9,010.9,0003.4,0013.01,0005.86,0004.95
2024-04-09 22:51:00,SystemResetWarning,0825.6,5.01,000.00,026.1,025.5,000.0,034.4,027.9,011.1,0004.1,0013.64,0005.87,0004.94
2024-04-09 22:52:00,SystemResetWarning,0825.6,5.01,000.00,026.1,025.5,000.0,034.4,028.0,010.9,0004.5,0014.02,0005.84,0004.91
2024-04-09 22:53:00,SystemResetWarning,0825.6,5.00,000.00,026.2,025.5,000.0,034.5,028.0,010.9,0004.7,0014.27,0005.80,0004.89
2024-04-09 22:54:00,SystemResetWarning,0825.7,5.00,000.00,026.2,025.5,000.0,034.5,028.0,011.1,0004.9,0014.78,0005.87,0004.89
2024-04-09 22:55:00,SystemResetWarning,0825.6,5.00,000.00,026.2,025.6,000.0,034.5,028.0,010.8,0004.4,0014.66,0005.90,0004.91
2024-04-09 22:56:00,SystemResetWarning,0825.7,5.00,000.00,026.2,025.6,000.0,034.5,028.0,010.8,0004.5,0014.94,0005.90,0004.92
2024-04-09 22:57:00,SystemResetWarning,0825.6,5.00,000.00,026.2,025.6,000.0,034.5,028.0,010.7,0005.5,0014.70,0005.93,0004.93
2024-04-09 22:58:00,SystemResetWarning,0825.6,5.00,000.00,026.2,025.6,000.0,034.5,028.1,010.8,0005.7,0015.68,0005.92,0004.92
2024-04-09 22:59:00,SystemResetWarning,0825.6,5.00,000.00,026.2,025.6,000.0,034.5,028.1,010.8,0005.1,0015.76,0005.91,0004.91
